When you browse on this site, cookies collect data to enhance your experience and personalize the content and advertising you see.
Visit our Privacy Policy to learn more. By continuing to use the site, you agree to this use of cookies and data.
  • In United Kingdom
  • List of Countries
  • For 7 days
  • Water Temperature
  • Satellite Maps
  • Weather Map
  • Weather Widgets
  • user-avatar
    Login

    Hourly Weather Louviers

    Today, 24 April, Wednesday

    Time Temperature Precipitation Wind Pressure Humidity
    00:00 +12°C° 0 mm 1 mps 738 mmHg 91%
    01:00 +12°C° 0 mm 1 mps 738 mmHg 92%
    02:00 +12°C° 0 mm 2 mps 737 mmHg 92%
    03:00 +12°C° 0 mm 2 mps 737 mmHg 93%
    04:00 +11°C° 0 mm 3 mps 737 mmHg 92%
    05:00 +10°C° 0 mm 5 mps 737 mmHg 92%
    06:00 +11°C° 0 mm 6 mps 738 mmHg 91%
    07:00 +11°C° 0 mm 6 mps 738 mmHg 88%
    08:00 +11°C° 0 mm 6 mps 738 mmHg 85%
    09:00 +13°C° 0 mm 6 mps 739 mmHg 82%
    10:00 +13°C° 0 mm 6 mps 739 mmHg 80%
    11:00 +13°C° 0 mm 6 mps 739 mmHg 77%
    12:00 +13°C° 0 mm 5 mps 740 mmHg 75%
    13:00 +13°C° 0.6 mm 5 mps 740 mmHg 79%
    14:00 +12°C° 0.6 mm 5 mps 740 mmHg 83%
    15:00 +12°C° 0.6 mm 5 mps 740 mmHg 86%
    16:00 +12°C° 0.2 mm 5 mps 740 mmHg 85%
    17:00 +12°C° 0.2 mm 5 mps 740 mmHg 85%
    18:00 +12°C° 0.2 mm 5 mps 740 mmHg 84%
    19:00 +10°C° 0 mm 5 mps 740 mmHg 84%
    20:00 +11°C° 0 mm 4 mps 741 mmHg 84%
    21:00 +10°C° 0 mm 4 mps 741 mmHg 84%
    22:00 +10°C° 0.1 mm 4 mps 741 mmHg 86%
    23:00 +10°C° 0.1 mm 4 mps 741 mmHg 88%

    Tomorrow, 25 April, Thursday

    Time Temperature Precipitation Wind Pressure Humidity
    00:00 +10°C° 0.1 mm 4 mps 741 mmHg 90%
    01:00 +10°C° 0.8 mm 4 mps 741 mmHg 91%
    02:00 +10°C° 0.8 mm 4 mps 741 mmHg 93%
    03:00 +10°C° 0.8 mm 4 mps 741 mmHg 94%
    04:00 +8°C° 1.2 mm 4 mps 741 mmHg 95%
    05:00 +9°C° 1.2 mm 3 mps 741 mmHg 95%
    06:00 +9°C° 1.2 mm 3 mps 741 mmHg 96%
    07:00 +10°C° 0.3 mm 4 mps 742 mmHg 92%
    08:00 +9°C° 0.3 mm 5 mps 742 mmHg 87%
    09:00 +10°C° 0.3 mm 6 mps 743 mmHg 82%
    10:00 +11°C° 0.4 mm 7 mps 743 mmHg 78%
    11:00 +11°C° 0.4 mm 7 mps 744 mmHg 73%
    12:00 +12°C° 0.4 mm 7 mps 744 mmHg 69%
    13:00 +12°C° 0.5 mm 7 mps 745 mmHg 70%
    14:00 +12°C° 0.5 mm 7 mps 745 mmHg 71%
    15:00 +12°C° 0.5 mm 7 mps 745 mmHg 73%
    16:00 +11°C° 0.3 mm 6 mps 746 mmHg 76%
    17:00 +10°C° 0.3 mm 5 mps 746 mmHg 80%
    18:00 +11°C° 0.3 mm 4 mps 746 mmHg 83%
    19:00 +10°C° 0.2 mm 4 mps 747 mmHg 86%
    20:00 +7°C° 0.2 mm 4 mps 748 mmHg 89%
    21:00 +6°C° 0.2 mm 4 mps 749 mmHg 92%
    22:00 +6°C° 0 mm 4 mps 749 mmHg 92%
    23:00 +5°C° 0 mm 4 mps 749 mmHg 93%

    Day after tomorrow, 26 April, Friday

    Time Temperature Precipitation Wind Pressure Humidity
    00:00 +5°C° 0 mm 4 mps 749 mmHg 94%
    01:00 +5°C° 0 mm 4 mps 750 mmHg 94%
    02:00 +4°C° 0 mm 4 mps 750 mmHg 94%
    03:00 +4°C° 0 mm 3 mps 750 mmHg 94%
    04:00 +4°C° 0 mm 4 mps 750 mmHg 93%
    05:00 +5°C° 0 mm 4 mps 751 mmHg 92%
    06:00 +5°C° 0 mm 5 mps 751 mmHg 91%
    07:00 +7°C° 0 mm 6 mps 751 mmHg 86%
    08:00 +9°C° 0 mm 6 mps 751 mmHg 81%
    09:00 +11°C° 0 mm 7 mps 752 mmHg 76%
    10:00 +12°C° 0.2 mm 7 mps 752 mmHg 76%
    11:00 +12°C° 0.2 mm 7 mps 752 mmHg 75%
    12:00 +14°C° 0.2 mm 7 mps 752 mmHg 74%
    13:00 +13°C° 0.4 mm 6 mps 753 mmHg 76%
    14:00 +13°C° 0.4 mm 6 mps 753 mmHg 78%
    15:00 +13°C° 0.4 mm 6 mps 753 mmHg 80%
    16:00 +12°C° 0.2 mm 5 mps 753 mmHg 82%
    17:00 +11°C° 0.2 mm 4 mps 754 mmHg 83%
    18:00 +10°C° 0.2 mm 4 mps 754 mmHg 84%
    19:00 +9°C° 0 mm 3 mps 755 mmHg 86%
    20:00 +8°C° 0 mm 3 mps 755 mmHg 87%
    21:00 +7°C° 0 mm 3 mps 755 mmHg 88%
    22:00 +6°C° 0 mm 4 mps 755 mmHg 88%
    23:00 +7°C° 0 mm 5 mps 754 mmHg 87%

    27 April, Saturday

    Time Temperature Precipitation Wind Pressure Humidity
    00:00 +7°C° 0 mm 6 mps 754 mmHg 86%
    01:00 +6°C° 0.4 mm 7 mps 753 mmHg 88%
    02:00 +6°C° 0.4 mm 8 mps 752 mmHg 90%
    03:00 +7°C° 0.4 mm 8 mps 751 mmHg 91%
    04:00 +6°C° 0.2 mm 9 mps 751 mmHg 90%
    05:00 +6°C° 0.2 mm 9 mps 750 mmHg 89%
    06:00 +5°C° 0.2 mm 9 mps 749 mmHg 88%
    07:00 +6°C° 0.5 mm 9 mps 750 mmHg 86%
    08:00 +7°C° 0.5 mm 10 mps 750 mmHg 85%
    09:00 +7°C° 0.5 mm 10 mps 750 mmHg 83%
    10:00 +7°C° 0.6 mm 10 mps 751 mmHg 84%
    11:00 +7°C° 0.6 mm 10 mps 751 mmHg 86%
    12:00 +8°C° 0.6 mm 10 mps 752 mmHg 87%
    13:00 +7°C° 1.3 mm 10 mps 752 mmHg 88%
    14:00 +7°C° 1.3 mm 10 mps 752 mmHg 89%
    15:00 +7°C° 1.3 mm 10 mps 753 mmHg 90%
    16:00 +6°C° 1.3 mm 10 mps 753 mmHg 91%
    17:00 +6°C° 1.3 mm 9 mps 754 mmHg 92%
    18:00 +6°C° 1.3 mm 9 mps 755 mmHg 92%
    19:00 +6°C° 1.7 mm 9 mps 755 mmHg 92%
    20:00 +7°C° 1.7 mm 8 mps 756 mmHg 92%
    21:00 +7°C° 1.7 mm 8 mps 757 mmHg 93%
    22:00 +7°C° 0.4 mm 8 mps 757 mmHg 92%
    23:00 +7°C° 0.4 mm 8 mps 757 mmHg 92%

    28 April, Sunday

    Time Temperature Precipitation Wind Pressure Humidity
    00:00 +6°C° 0.4 mm 8 mps 758 mmHg 91%
    01:00 +6°C° 0 mm 7 mps 758 mmHg 92%
    02:00 +7°C° 0 mm 6 mps 758 mmHg 92%
    03:00 +6°C° 0 mm 5 mps 758 mmHg 92%
    04:00 +6°C° 0 mm 5 mps 758 mmHg 93%
    05:00 +6°C° 0 mm 5 mps 759 mmHg 93%
    06:00 +6°C° 0 mm 4 mps 759 mmHg 93%
    07:00 +7°C° 0 mm 4 mps 759 mmHg 91%
    08:00 +8°C° 0 mm 4 mps 759 mmHg 89%
    09:00 +9°C° 0 mm 5 mps 759 mmHg 88%
    10:00 +10°C° 0.1 mm 4 mps 759 mmHg 87%
    11:00 +10°C° 0.1 mm 4 mps 759 mmHg 86%
    12:00 +10°C° 0.1 mm 4 mps 759 mmHg 85%
    13:00 +11°C° 0.1 mm 4 mps 759 mmHg 83%
    14:00 +10°C° 0.1 mm 5 mps 758 mmHg 81%
    15:00 +12°C° 0.1 mm 5 mps 758 mmHg 78%
    16:00 +12°C° 0.1 mm 4 mps 758 mmHg 80%
    17:00 +11°C° 0.1 mm 4 mps 758 mmHg 82%
    18:00 +11°C° 0.1 mm 3 mps 758 mmHg 84%
    19:00 +10°C° 0 mm 3 mps 759 mmHg 86%
    20:00 +9°C° 0 mm 2 mps 759 mmHg 88%
    21:00 +7°C° 0 mm 2 mps 759 mmHg 90%
    22:00 +7°C° 0.4 mm 2 mps 759 mmHg 91%
    23:00 +8°C° 0.4 mm 1 mps 759 mmHg 92%

    29 April, Monday

    Time Temperature Precipitation Wind Pressure Humidity
    00:00 +8°C° 0.4 mm 1 mps 759 mmHg 94%
    01:00 +8°C° 0.3 mm 1 mps 759 mmHg 94%
    02:00 +8°C° 0.3 mm 1 mps 758 mmHg 95%
    03:00 +8°C° 0.3 mm 1 mps 758 mmHg 96%
    04:00 +8°C° 0 mm 1 mps 758 mmHg 95%
    05:00 +8°C° 0 mm 1 mps 758 mmHg 95%
    06:00 +8°C° 0 mm 0 mps 758 mmHg 95%
    07:00 +10°C° 0 mm 1 mps 758 mmHg 91%
    08:00 +11°C° 0 mm 1 mps 758 mmHg 86%
    09:00 +12°C° 0 mm 1 mps 758 mmHg 82%
    10:00 +13°C° 0 mm 1 mps 758 mmHg 76%
    11:00 +14°C° 0 mm 2 mps 757 mmHg 71%
    12:00 +15°C° 0 mm 2 mps 757 mmHg 66%
    13:00 +15°C° 0 mm 2 mps 757 mmHg 65%
    14:00 +16°C° 0 mm 2 mps 756 mmHg 65%
    15:00 +16°C° 0 mm 2 mps 756 mmHg 64%
    16:00 +16°C° 0 mm 2 mps 756 mmHg 69%
    17:00 +15°C° 0 mm 2 mps 755 mmHg 74%
    18:00 +13°C° 0 mm 3 mps 755 mmHg 79%
    19:00 +12°C° 0 mm 3 mps 755 mmHg 83%
    20:00 +10°C° 0 mm 3 mps 756 mmHg 87%
    21:00 +9°C° 0 mm 3 mps 756 mmHg 91%
    22:00 +8°C° 0 mm 3 mps 755 mmHg 91%
    23:00 +8°C° 0 mm 3 mps 755 mmHg 92%
    Show more